EW2997 Weather Reports


time (UTC)temp
C
wind
direction
speed
KPH
gust
KPH
rain 1hr
cm
rain 24hr
cm
rain mn
cm
humidity
%
barometer
mb
20260905165611 25 162 3.2 3.2 0.00 0.00 0.00 69 1017.0
20260905162607 25 286 0.0 0.0 0.00 0.00 0.00 71 1017.4
20260905155603 24 241 0.0 0.0 0.00 0.00 0.00 73 1017.7
20260905152600 23 66 3.2 3.2 0.00 0.00 0.00 78 1017.4
20260905145556 23 138 0.0 0.0 0.00 0.00 0.00 80 1017.4
20260905142555 23 138 0.0 0.0 0.00 0.00 0.00 82 1017.4
20260905135553 23 139 3.2 3.2 0.00 0.00 0.00 81 1016.7
20260905132548 23 38 0.0 0.0 0.00 0.00 0.00 84 1016.7
20260905125545 23 36 0.0 0.0 0.00 0.00 0.00 86 1017.0
20260905122542 23 222 0.0 0.0 0.00 0.00 0.00 83 1016.3
20260905115537 21 222 0.0 0.0 0.00 0.00 0.00 95 1016.3
20260905112534 20 222 0.0 0.0 0.00 0.00 0.00 96 1016.3
20260905105530 20 222 0.0 0.0 0.00 0.00 0.00 97 1016.3
20260905102529 20 222 0.0 0.0 0.00 0.00 0.00 97 1016.0
20260905095525 20 222 0.0 0.0 0.00 0.00 0.00 97 1015.6
20260905092524 20 222 0.0 0.0 0.00 0.00 0.00 97 1015.6
20260905085524 19 223 0.0 0.0 0.00 0.00 0.00 97 1015.2
20260905082519 20 224 0.0 0.0 0.00 0.00 0.00 97 1016.0
20260905075514 19 224 0.0 0.0 0.00 0.00 0.00 97 1016.0
20260905072513 20 224 0.0 0.0 0.00 0.00 0.00 97 1016.0
20260905065511 19 228 0.0 0.0 0.00 0.00 0.00 97 1016.3
20260905062509 20 226 0.0 0.0 0.00 0.00 0.00 97 1016.7
20260905055505 20 221 0.0 0.0 0.00 0.00 0.00 97 1017.0
20260905052504 20 221 0.0 0.0 0.00 0.00 0.00 97 1017.4
20260905045500 20 221 0.0 0.0 0.00 0.00 0.00 97 1017.4
20260905042456 20 221 0.0 0.0 0.00 0.00 0.00 97 1017.4
20260905035453 21 221 0.0 0.0 0.00 0.00 0.00 97 1017.4
20260905032453 21 221 0.0 0.0 0.00 0.00 0.00 96 1017.4
20260905025452 21 221 0.0 0.0 0.00 0.00 0.00 96 1017.4
20260905022451 21 221 0.0 0.0 0.00 0.00 0.00 96 1017.0
20260905015445 21 221 0.0 0.0 0.00 0.00 0.00 95 1016.7
20260905012445 21 221 0.0 0.0 0.00 0.00 0.00 94 1016.7
20260905005443 22 236 1.6 1.6 0.00 0.00 0.00 94 1017.0
20260905002443 23 239 3.2 3.2 0.00 0.00 0.00 91 1016.3
20260904235443 23 222 3.2 3.2 0.00 0.00 0.00 90 1016.3
20260904232444 25 222 0.0 0.0 0.00 0.00 0.00 85 1016.3
20260904225440 26 222 0.0 0.0 0.00 0.00 0.00 84 1016.3
20260904222438 26 222 1.6 1.6 0.00 0.00 0.00 77 1017.0
20260904215435 27 251 0.0 0.0 0.00 0.00 0.00 69 1017.0
20260904212433 27 277 3.2 3.2 0.00 0.00 0.00 64 1016.7
20260904205432 27 288 4.8 4.8 0.00 0.00 0.00 63 1017.0
20260904202431 29 18 0.0 0.0 0.00 0.00 0.00 59 1017.0
20260904195427 29 32 0.0 0.0 0.00 0.00 0.00 64 1017.7
20260904192425 28 115 0.0 0.0 0.00 0.00 0.00 69 1017.4
20260904185424 27 300 0.0 0.0 0.00 0.00 0.00 67 1017.7
20260904182424 28 303 0.0 0.0 0.00 0.00 0.00 63 1017.7
20260904175419 29 65 3.2 3.2 0.00 0.00 0.00 58 1018.4
20260904172420 29 47 4.8 6.4 0.00 0.00 0.00 65 1018.4